Tracking 26325 objects as of 28-Nov-2022
HD Live streaming from Space Station
objects crossing your sky now

WESTFORD NEEDLES

Track WESTFORD NEEDLES now!
10-day predictions
WESTFORD NEEDLES is classified as:


NORAD ID: 18688
Int'l Code: 1963-014DM
Perigee: 3,617.3 km
Apogee: 3,688.0 km
Inclination: 87.3 °
Period: 166.5 minutes
Semi major axis: 10023 km
RCS: 0.0937 m2 (small)
Launch date: May 9, 1963
Source: United States (US)
Launch site: AIR FORCE WESTERN TEST RANGE (AFWTR)
aabbcc
Your satellite tracking list
Your tracking list is empty




NASA's NSSDC Master Catalog

Two Line Element Set (TLE):
1 18688U 63014DM  22331.48339685 -.00000018  00000-0 -97712-2 0  9991
2 18688  87.3380 326.2552 0035300 327.7484 192.1927  8.65096931  7109
Source of the keplerian elements: AFSPC